This demonstration page uses our WeatherBlox Daily Observations layout. Learn more.

Left ArrowRight Arrow

Hourly Observations for September 8, 2015

Temp ( °F °C ) Dew Point ( °F °C ) Humidity (%) Winds ( mph kmh ) Pressure ( in mb ) Visibility ( mi km ) Precip ( " mm )
12:59 am 00:59 Clear 72 22.2 70 21.1 94 94 Calm 30.10 1019 9 14 0.00 0.00
1:59 am 01:59 Clear 72 22.2 70 21.1 94 94 Calm 30.09 1019 9 14 0.00 0.00
2:59 am 02:59 Clear 71 21.7 69 20.6 94 94 Calm 30.08 1019 9 14 0.00 0.00
3:59 am 03:59 Clear 71 21.7 69 20.6 94 94 Calm 30.07 1018 9 14 0.00 0.00
4:59 am 04:59 Clear with Patchy Fog 72 22.2 70 21.1 94 94 Calm 30.07 1018 8 13 0.00 0.00
5:59 am 05:59 Mostly Clear 72 22.2 70 21.1 94 94 Calm 30.08 1019 8 13 0.00 0.00
6:59 am 06:59 Partly Cloudy with Mist and Fog 71 21.7 69 20.6 94 94 Calm 30.09 1019 5 8 0.00 0.00
7:59 am 07:59 Partly Cloudy 78 25.6 75 23.9 90 90 Calm 30.10 1019 6 10 0.00 0.00
8:59 am 08:59 Partly Cloudy 81 27.2 73 22.8 77 77 ENE 3 6 30.09 1019 10 16 0.00 0.00
9:59 am 09:59 Partly Cloudy 83 28.3 73 22.8 72 72 NE 8 13 30.09 1019 10 16 0.00 0.00
10:59 am 10:59 Partly Cloudy 81 27.2 74 23.3 79 79 ENE 8 13 30.09 1019 10 16 0.00 0.00
11:59 am 11:59 Partly Cloudy 82 27.8 75 23.9 79 79 ENE 10 17 30.08 1019 7 11 0.02 0.51
12:59 pm 12:59 Mostly Cloudy with Rain 80 26.7 75 23.9 85 85 E 6 9 30.07 1018 7 11 0.01 0.25
1:59 pm 13:59 Mostly Cloudy 83 28.3 74 23.3 74 74 E 9 15 30.06 1018 10 16 0.01 0.25
2:22 pm 14:22 Mostly Cloudy with Thunderstorms 78 25.6 74 23.3 87 87 E 13 20 30.06 1018 3 5 0.01 0.25
2:37 pm 14:37 Mostly Cloudy with Strong Thunderstorms 78 25.6 74 23.3 87 87 VRB 6 9 30.06 1018 2 3 0.01 0.25
2:59 pm 14:59 Mostly Cloudy with Light Rain 78 25.6 75 23.9 90 90 Calm 30.06 1018 2 3 0.02 0.51
3:06 pm 15:06 Cloudy with Light Rain 78 25.6 75 23.9 90 90 Calm 30.06 1018 3 5 0.00 0.03
3:59 pm 15:59 Mostly Cloudy 79 26.1 75 23.9 88 88 Calm 30.02 1017 8 13 0.01 0.25
4:59 pm 16:59 Mostly Cloudy 82 27.8 75 23.9 79 79 SE 5 7 30.00 1016 10 16 0.01 0.25
5:59 pm 17:59 Partly Cloudy 83 28.3 74 23.3 74 74 SSE 5 7 30.00 1016 10 16 0.00 0.00
6:59 pm 18:59 Partly Cloudy 82 27.8 74 23.3 77 77 SE 5 7 29.99 1016 10 16 0.00 0.00
7:59 pm 19:59 Mostly Clear 79 26.1 73 22.8 82 82 S 3 6 30.01 1016 10 16 0.00 0.00
8:59 pm 20:59 Mostly Clear 78 25.6 73 22.8 85 85 SE 3 6 30.02 1017 10 16 0.00 0.00
9:59 pm 21:59 Mostly Clear 77 25 73 22.8 88 88 SSE 3 6 30.03 1017 10 16 0.00 0.00
10:59 pm 22:59 Mostly Clear 77 25 73 22.8 88 88 S 5 7 30.02 1017 10 16 0.00 0.00
11:59 pm 23:59 Clear 77 25 74 23.3 90 90 S 5 7 30.02 1017 10 16 0.00 0.00

Powered by AerisWeather